Home > Weather > Warburg > Past weeks

Flag for Germany Past Weather in Warburg, North Rhine-Westphalia, Germany — Yesterday and Last 2 Weeks

Now
57 °F

Scattered clouds.


Feels Like: 57 °F
Forecast: 57 / 68 °F
Wind: 3 mph from East

Location: Kassel / Calden

Current Time: May 28, 2016 at 8:05:38 AM

Latest Report: May 28, 2016 at 7:20 AM


Visibility: 4 mi

Pressure: 29.98 "Hg

Humidity: 94%

Dew Point: 55 °F

Location of WarburgLocation

Past Weather in Warburg — Graph

°F

Warburg Temperature Yesterday

Maximum temperature yesterday: 70 °F (at 2:50 PM)
Minimum temperature yesterday: 54 °F (at 7:20 AM)
Average temperature yesterday: 64 °F

High & Low Weather Summary for the Past Weeks

 TemperatureHumidityPressure
High79 °F (May 22, 2:20 PM)100% (May 13, 7:20 AM)30.09 "Hg (May 13, 7:20 AM)
Low41 °F (May 15, 7:20 AM)33% (May 13, 4:50 PM)29.56 "Hg (May 13, 7:20 AM)
Average57 °F68%29.93 "Hg
* Reported May 13 7:20 AM — May 28 5:50 AM, Warburg, Weather by CustomWeather, © 2016

Note: Actual official high and low records may vary slightly from our data, if they occured in-between our weather recording intervals... More about our weather records

Advertising

Warburg Weather History for the Previous 24 Hours

Scroll right to see more
 ConditionsComfort  
Time TempWeatherWind HumidityBarometerVisibility
5:50 AM
Sat, May 28
54 °FPartly cloudy.3 mph100%29.98 "Hg4 mi
5:20 AM54 °FPartly cloudy.1 mph100%29.98 "Hg4 mi
4:50 AM54 °FPartly cloudy.1 mph100%29.98 "Hg4 mi
4:20 AM55 °FPartly cloudy.1 mph100%29.98 "Hg4 mi
9:20 PM
Fri, May 27
61 °FScattered showers. Partly sunny.7 mph72%30.01 "HgN/A
8:50 PM63 °FPartly sunny.8 mph73%30.01 "HgN/A
8:20 PM64 °FScattered showers. Partly sunny.8 mph68%30.01 "HgN/A
7:50 PM66 °FPartly sunny.8 mph64%29.98 "HgN/A
7:20 PM66 °FPartly sunny.8 mph60%29.98 "HgN/A
6:50 PM68 °FScattered clouds.9 mph56%29.98 "HgN/A
6:20 PM68 °FScattered clouds.9 mph56%29.98 "HgN/A
5:50 PM68 °FScattered clouds.10 mph56%29.98 "HgN/A
5:20 PM68 °FScattered clouds.7 mph56%29.98 "HgN/A
4:50 PM68 °FScattered clouds.9 mph60%30.01 "HgN/A
4:20 PM68 °FScattered clouds.6 mph56%30.01 "HgN/A
3:50 PM68 °FScattered clouds.3 mph56%30.01 "HgN/A
3:20 PM68 °FScattered clouds.6 mph56%30.01 "HgN/A
2:50 PM70 °FScattered clouds.5 mph53%30.01 "HgN/A
2:20 PM68 °FScattered clouds.5 mph56%30.01 "HgN/A
1:50 PM66 °FBroken clouds.7 mph64%30.01 "HgN/A
1:20 PM66 °FBroken clouds.8 mph60%30.01 "HgN/A
12:50 PM68 °FBroken clouds.9 mph56%30.01 "HgN/A
12:20 PM66 °FPartly sunny.5 mph60%30.01 "HgN/A
11:50 AM66 °FPartly sunny.3 mph60%30.01 "HgN/A
11:20 AM64 °FPartly sunny.5 mph64%30.01 "Hg6 mi
10:50 AM61 °FClear.5 mph68%30.01 "Hg6 mi
10:20 AM59 °FClear.5 mph77%30.01 "Hg6 mi
9:50 AM57 °FClear.5 mph82%30.01 "Hg6 mi
9:20 AM57 °FClear.6 mph88%30.01 "Hg5 mi
8:50 AM57 °FClear.5 mph82%30.01 "Hg5 mi
8:20 AM55 °FClear.5 mph94%30.01 "Hg4 mi
Weather by CustomWeather, © 2016

See weather overviewHow to use our weather pages